Helicity
63 57 49 44 37 27 24 22 20 17 17 30 50 60 64 59 60 -35 -36 -10 -73 -66 -48 7 27 16 49 78 78 63 18 -8 45 96 54 97 143 181 127 207 159 87 126 138 124
63 58 49 41 39 33 27 24 20 17 17 34 56 66 71 55 7 24 70 -11 2 -10 -38 4 44 47 31 29 56 99 71 27 68 119 110 102 159 211 196 180 101 117 251 256 200
58 56 50 43 39 34 31 26 20 17 20 37 57 71 77 72 49 34 52 24 -77 -72 -24 2 36 28 57 44 38 35 68 99 37 163 125 124 60 136 205 186 133 327 318 240 193
46 46 49 52 45 35 30 28 21 19 26 37 56 70 94 26 20 68 113 -25 -84 -62 -36 21 -5 105 34 38 46 22 51 40 40 70 180 153 61 99 170 77 189 293 326 223 177
45 46 47 48 50 39 33 29 26 27 31 35 48 59 24 47 18 59 100 -8 -57 -52 -76 31 45 16 115 108 80 29 -25 -8 5 95 151 124 109 58 95 113 203 257 297 264 200
46 43 46 41 41 43 42 39 30 30 31 29 29 41 23 30 23 15 39 23 -24 -76 9 -19 4 125 57 73 -27 19 6 -2 13 8 77 146 68 69 122 184 222 274 292 249 236
50 44 48 46 48 53 59 48 38 27 22 14 8 -1 18 -7 35 21 47 68 -49 -31 47 5 14 71 52 -5 -57 -72 -56 5 8 38 73 135 88 119 196 233 274 218 206 234 172
53 52 57 60 58 71 87 66 39 20 7 4 -17 -3 13 4 6 28 45 104 98 25 27 18 2 6 -147 -93 -79 -63 7 -11 -15 -3 55 190 102 74 279 290 220 196 229 226 226
55 54 60 67 68 80 100 78 13 -28 -22 -2 -1 16 12 27 -4 24 27 72 113 106 71 35 8 -108 -86 -105 -40 -24 98 90 -12 -3 63 134 96 78 282 308 235 222 177 240 158
61 63 67 73 67 66 90 22 -6 4 -11 -8 10 19 39 18 -1 -6 46 92 126 129 51 -18 -5 -67 -77 -28 58 78 146 125 52 -29 64 69 44 138 217 275 222 233 180 175 269
67 71 82 91 77 49 23 9 13 12 22 -1 -16 -11 60 57 9 2 52 94 82 22 -30 -22 0 -26 -7 27 50 75 104 81 136 16 -13 -23 -5 112 187 145 203 238 256 202 198
75 80 90 118 89 47 -6 15 1 -11 44 58 28 15 -12 21 22 1 41 30 16 -19 -19 -21 -49 79 12 44 67 105 41 65 31 0 -16 9 -15 -19 117 136 233 270 258 243 140
79 80 86 132 123 19 43 -5 26 -2 20 34 -6 -16 -7 20 -7 3 26 11 17 -8 -5 42 22 62 52 117 81 29 23 41 9 -3 -14 -21 16 54 -15 18 126 216 324 262 236
76 65 56 154 27 43 30 9 22 -13 47 10 -8 -13 25 14 35 -11 2 2 12 3 23 18 87 58 49 -8 77 42 54 57 16 -59 -25 -11 103 77 5 34 41 111 247 277 210
75 44 19 8 31 20 10 28 23 10 62 -2 -27 -1 22 7 40 -41 -3 9 49 24 27 -5 -12 -36 -63 -34 61 -5 37 37 6 -48 -43 26 31 23 56 17 17 125 266 277 243
83 23 7 -1 35 28 62 46 14 48 81 -7 -38 -26 23 -46 9 27 11 1 -19 -20 -20 -27 -41 -12 43 0 42 35 46 29 4 0 34 -17 51 0 13 65 41 -22 87 235 268
114 30 20 35 34 57 106 46 53 77 39 15 -7 -6 -44 -18 -48 -37 19 37 20 40 1 -10 -13 25 9 -11 37 62 42 20 33 54 22 86 43 -26 135 221 92 102 11 25 99
113 98 6 63 48 49 81 69 100 75 68 20 2 36 -11 -56 -34 -17 39 3 -40 -12 22 58 61 26 0 32 3 4 25 38 16 45 65 14 8 45 220 253 349 220 142 120 22
111 13 36 38 -5 82 94 61 90 64 73 87 10 11 4 -54 -29 9 24 13 7 140 21 16 -6 2 16 9 35 16 0 4 38 46 36 29 33 -23 274 344 406 380 254 173 62
36 59 39 47 32 85 82 45 30 33 118 89 27 30 39 42 39 25 11 -3 38 209 145 20 3 16 20 48 53 40 5 15 17 35 6 37 3 73 287 320 246 261 171 180 159
46 87 37 -15 59 102 26 34 16 77 78 48 65 77 49 46 20 61 14 53 62 43 86 155 33 22 56 91 83 101 69 72 28 13 -18 44 32 48 71 58 94 120 109 106 118
68 125 17 -4 87 59 12 22 37 100 123 69 48 61 50 74 138 122 138 139 99 18 62 55 40 85 98 169 80 83 92 61 67 58 65 48 25 50 11 -41 0 36 105 139 160
80 80 38 36 97 94 95 112 87 71 79 76 79 73 86 103 106 155 147 198 193 98 100 74 107 140 128 142 125 105 101 77 96 108 91 105 96 112 75 17 54 7 5 106 127
58 89 102 95 91 152 191 193 164 64 96 88 92 69 83 165 210 159 141 185 262 149 126 101 100 89 93 85 84 67 53 37 53 144 147 133 79 136 207 166 68 57 15 0 23
75 61 62 173 185 143 134 176 201 173 106 126 126 105 76 118 157 207 228 216 207 245 129 94 107 110 136 140 118 60 59 74 35 17 72 59 70 60 20 14 12 -35 -40 -43 -26
74 66 69 128 148 157 108 173 146 155 158 148 72 110 90 90 81 114 153 167 146 179 162 140 153 146 156 144 173 193 199 155 129 89 52 65 66 47 18 19 57 -1 32 34 5
56 45 63 124 175 164 203 142 155 104 159 84 24 30 38 18 35 55 67 73 74 113 143 152 168 157 133 173 139 154 172 131 95 101 72 76 57 54 33 21 2 34 55 70 90
Wind_Speed
43 45 47 48 49 48 47 45 45 45 45 43 42 41 40 41 41 38 45 42 33 37 35 34 32 31 30 28 31 32 36 32 35 35 34 32 29 27 29 30 27 29 25 27 38
45 47 50 51 51 50 49 47 48 47 45 43 41 40 40 40 38 41 45 48 47 44 20 25 28 25 27 29 29 27 29 30 31 30 27 29 28 32 32 28 24 31 34 41 42
47 50 52 52 51 51 51 50 49 47 44 42 40 39 39 37 30 31 41 53 43 26 21 33 29 28 29 31 27 25 23 23 27 30 29 29 26 28 31 26 28 33 37 42 45
51 53 52 51 51 52 52 51 48 45 43 40 38 38 38 29 23 27 33 50 24 14 19 35 23 30 33 29 29 23 22 24 33 28 29 28 28 27 30 21 34 40 43 44 43
51 52 52 53 53 53 53 50 47 44 41 39 37 37 30 28 28 30 25 8 5 8 20 27 29 33 34 33 29 38 35 20 20 29 27 29 28 24 27 34 39 40 42 43 44
52 53 54 55 56 55 52 49 45 42 40 38 37 36 29 23 30 23 21 11 16 4 21 36 17 31 27 14 35 29 21 15 20 28 27 25 26 26 30 36 36 38 42 43 44
54 55 55 54 54 53 51 47 43 40 38 37 36 32 29 28 29 21 19 29 6 5 40 40 35 35 36 36 37 41 43 48 18 21 20 25 20 24 31 33 34 33 39 40 40
54 53 53 52 52 50 48 45 41 38 36 35 30 30 30 28 34 40 37 35 37 54 46 38 33 36 24 33 38 40 42 46 12 19 18 20 13 24 30 33 35 37 32 38 41
53 53 53 51 50 49 47 42 37 33 32 30 29 30 29 37 27 36 48 30 36 45 43 38 35 27 26 30 37 37 46 47 47 29 28 16 19 21 30 33 33 35 35 34 38
55 54 54 52 51 50 46 37 31 31 30 29 32 30 26 28 25 30 34 38 34 30 31 28 27 27 25 26 33 43 49 43 40 41 22 11 32 19 29 32 35 32 33 34 37
57 56 55 54 52 49 41 32 35 34 35 36 32 34 33 27 24 23 24 24 26 25 20 29 31 22 16 18 23 36 37 36 35 41 45 24 33 22 30 35 32 32 32 31 38
59 58 57 55 52 44 33 32 33 35 40 39 41 45 43 34 26 23 13 19 19 18 22 29 31 27 20 24 25 36 53 42 15 45 47 44 37 33 26 38 36 34 39 37 32
59 59 58 57 51 33 37 34 36 41 39 40 24 27 35 14 22 32 11 18 20 17 19 19 11 33 42 53 55 52 25 28 46 51 48 50 49 26 29 37 39 40 42 41 38
60 58 57 57 40 40 38 36 43 29 34 32 27 31 15 18 33 18 6 15 24 14 22 35 52 36 46 46 38 35 31 11 48 51 49 48 44 35 34 27 36 38 35 40 46
61 59 57 49 49 39 36 44 38 29 26 24 21 26 16 14 23 18 8 16 15 17 25 31 41 50 49 40 34 35 40 39 46 46 44 36 39 40 44 43 45 39 30 33 46
62 61 57 42 40 43 46 42 28 30 24 24 20 20 13 27 25 23 9 24 29 34 31 16 35 32 24 35 25 44 40 45 41 30 30 36 41 39 51 49 46 42 32 30 37
65 63 55 44 37 31 42 29 29 24 29 26 24 19 13 22 35 33 11 12 14 25 31 37 36 37 24 25 31 34 41 40 28 26 29 36 35 40 50 46 44 40 41 48 41
67 63 43 32 34 41 29 23 26 27 29 33 28 19 16 20 29 27 18 9 5 26 32 31 32 42 30 24 32 32 29 26 26 25 40 33 30 34 49 47 44 44 41 45 54
64 46 41 37 11 29 20 27 26 25 31 35 24 21 27 28 28 27 24 25 22 7 21 29 31 40 38 31 28 30 32 31 24 32 31 34 38 30 54 54 52 48 51 52 48
52 43 36 23 9 18 26 34 32 27 39 32 23 22 28 31 29 29 24 29 19 20 4 31 35 34 36 31 37 30 29 32 34 31 30 37 29 45 55 60 59 58 59 62 61
38 32 29 11 14 26 31 34 39 39 34 28 26 28 34 34 32 25 24 32 34 31 6 17 23 38 34 36 36 35 37 33 29 29 34 37 31 46 55 57 60 62 64 66 65
34 27 22 12 23 30 33 31 37 43 40 27 23 25 33 32 25 22 23 31 37 29 23 27 24 29 19 32 37 38 38 35 35 39 37 33 29 47 53 55 62 64 66 66 66
29 27 21 29 30 31 34 38 40 43 35 28 27 28 27 32 28 23 23 31 32 28 32 29 37 28 36 41 45 42 47 42 33 34 37 36 31 53 54 55 59 64 66 66 66
27 27 28 30 31 33 39 37 35 24 25 23 31 29 30 34 33 27 27 33 38 30 30 30 39 34 35 34 35 40 47 47 41 44 35 38 46 58 65 67 67 68 66 66 66
28 27 27 32 34 39 35 32 33 25 27 33 35 37 37 38 35 35 35 38 37 39 38 36 32 30 32 29 34 37 44 48 43 37 44 42 47 55 64 69 68 65 66 66 66
27 26 29 30 38 35 28 28 23 27 35 36 28 33 31 34 37 40 41 42 43 45 40 38 26 24 32 32 33 43 45 43 41 40 37 41 50 53 63 69 71 73 74 72 72
31 29 28 30 28 25 33 35 34 30 30 28 27 31 31 33 39 43 42 50 51 50 46 41 32 36 37 33 32 42 43 37 37 41 40 48 52 61 66 71 71 74 75 76 74
Wind_Direction
304 302 302 301 299 294 288 283 281 281 279 273 270 268 270 272 266 253 192 152 114 125 134 161 201 204 167 127 110 65 64 74 56 61 55 94 79 94 83 97 143 140 97 86 111
309 308 310 309 304 300 294 288 288 286 282 275 269 268 272 278 266 216 185 169 159 183 325 287 206 202 142 124 96 78 58 57 88 92 100 110 108 99 98 113 131 21 60 102 114
312 313 314 310 305 303 300 295 294 290 286 278 269 268 271 274 283 269 205 168 146 101 310 154 144 112 101 109 86 67 84 106 106 121 118 109 122 113 104 105 126 92 94 112 123
318 317 312 307 305 305 303 300 295 290 285 278 271 271 271 307 345 288 237 159 114 64 336 168 26 270 43 354 63 65 135 131 75 117 102 106 116 119 120 119 106 106 105 117 126
314 312 310 309 307 307 306 300 292 285 280 275 272 279 317 299 291 266 294 12 69 1 87 296 307 348 325 296 297 13 13 124 70 99 94 112 122 113 129 97 92 104 112 120 135
313 312 312 312 311 309 304 296 288 280 276 275 278 282 312 324 289 311 7 328 269 38 293 148 207 247 322 149 8 21 273 118 179 92 81 94 127 105 112 97 100 105 123 129 136
313 313 311 309 308 305 299 290 281 275 273 280 292 317 313 296 306 353 355 259 196 260 236 193 200 293 258 280 332 340 335 328 83 76 71 62 113 140 118 119 126 119 134 137 143
309 306 305 304 303 298 294 284 272 267 280 287 331 326 300 299 288 238 237 236 235 192 196 208 229 272 81 341 342 348 6 342 358 64 73 89 150 157 128 131 143 146 131 147 157
304 303 301 299 297 295 291 279 272 304 324 338 334 323 299 262 297 231 160 242 231 217 216 228 268 335 338 351 345 7 354 323 318 14 10 85 183 145 131 145 148 150 156 155 166
302 300 299 297 295 294 288 276 321 326 331 330 294 300 292 303 292 247 230 222 231 251 265 298 322 316 337 357 354 342 326 307 279 319 9 129 216 123 143 152 165 157 162 169 169
301 299 297 295 294 293 295 312 308 307 307 299 297 286 263 259 271 245 253 261 265 279 299 299 310 332 63 47 22 354 359 259 258 286 307 207 219 164 166 174 173 177 172 173 181
300 298 297 294 292 283 311 294 310 304 268 223 201 227 220 251 262 266 301 290 293 300 304 297 283 153 23 10 5 346 281 263 255 313 321 330 243 223 175 192 188 187 190 189 178
299 298 297 294 290 313 290 284 299 283 287 265 313 289 258 347 297 217 317 301 303 311 315 322 13 334 326 289 305 256 216 226 331 317 311 313 275 218 195 186 192 196 200 195 184
297 296 297 295 301 290 283 296 289 332 304 289 294 278 315 310 280 303 37 310 299 340 325 305 268 321 318 321 342 343 350 360 317 318 300 328 295 283 355 162 187 197 196 194 185
295 295 295 294 276 290 292 285 293 313 312 310 308 299 312 324 307 294 344 313 355 345 326 323 305 299 310 329 349 338 339 342 321 315 315 344 339 295 301 285 257 214 183 172 176
292 293 293 303 295 271 269 276 311 301 316 299 312 323 318 272 294 312 324 295 317 307 319 337 329 337 355 334 358 333 333 325 331 336 328 349 350 331 324 297 283 278 200 148 160
290 289 289 293 293 293 280 300 295 302 298 306 307 330 321 285 272 284 327 116 330 334 322 320 342 341 349 1 344 340 331 317 318 328 338 352 339 348 339 338 347 330 294 238 193
292 284 302 306 291 276 287 292 292 295 289 303 299 321 326 297 286 288 311 334 356 332 339 338 330 337 16 26 6 352 355 352 328 329 309 336 357 348 344 338 340 342 323 310 236
293 305 300 294 143 283 285 272 284 296 300 298 311 300 292 286 292 286 291 306 332 97 342 342 332 327 347 360 10 6 357 345 341 323 328 332 322 314 331 339 333 325 327 325 294
301 300 299 320 85 286 275 265 275 295 293 300 317 303 304 287 284 284 298 326 338 169 114 320 313 331 347 352 343 354 26 333 333 329 327 329 354 322 312 321 325 327 328 328 324
313 300 304 1 299 273 268 265 271 280 303 299 308 293 279 289 291 279 306 320 313 324 59 335 327 310 325 330 336 327 326 340 358 349 328 319 336 336 338 335 328 331 336 336 335
306 293 308 305 284 273 267 271 281 276 288 301 319 319 290 293 299 307 303 288 284 281 341 316 332 321 19 349 360 7 345 354 335 321 325 328 325 340 345 346 342 336 333 335 338
302 293 289 277 276 270 274 277 279 275 282 294 303 313 309 290 296 303 307 306 327 317 308 323 301 324 314 312 319 326 318 330 343 338 329 327 325 326 337 343 343 339 339 338 338
295 288 286 279 282 280 280 279 280 306 305 314 295 294 295 291 297 294 300 309 314 325 336 328 308 320 321 329 339 330 326 327 330 321 325 323 320 320 321 325 329 333 335 336 337
299 289 292 268 274 279 286 288 282 294 312 295 288 284 281 283 292 289 292 294 305 307 306 310 324 332 336 352 347 343 336 333 332 330 321 323 321 320 319 321 325 327 328 330 333
296 297 295 291 271 262 276 285 296 292 280 278 295 289 298 291 285 280 286 284 287 293 304 312 334 345 335 340 344 339 336 338 340 338 336 331 326 327 321 318 319 321 320 323 323
295 293 286 285 275 270 265 267 274 283 293 292 299 297 303 295 291 291 294 282 282 288 296 306 316 317 321 334 340 332 339 347 352 348 344 333 331 328 324 322 322 324 323 321 324